Weather History for Nebraska City, NE

Change the Weather History Date:

Sunday, January 13, 2013

  Actual Average (KSDA) Record (KSDA)
Temperature  
Mean Temperature 16 °F -  
Max Temperature 23 °F 31 °F 56 °F (1961)
Min Temperature 8 °F 11 °F -13 °F (1982)
Degree Days  
Heating Degree Days 50    
Moisture  
Dew Point 4 °F    
Average Humidity 64    
Maximum Humidity 81    
Minimum Humidity 38    
Precipitation  
Precipitation 0.00 in - - ()
Sea Level Pressure  
Sea Level Pressure 30.22 in    
Wind  
Wind Speed 9 mph (NW)    
Max Wind Speed 15 mph    
Max Gust Speed 22 mph    
Visibility 10 miles    
Events Snow    
Averages and records for this station are not official NWS values.
T = Trace of Precipitation, MM = Missing Value Source: NWS Daily Summary

Daily Weather History Graph

Daily Weather History Graph

Search for Another Location

Airport:

Trip Planner

Search our weather history database for the weather conditions in past years. The results will help you decide how hot, cold, wet, or windy it might be!

Date:

Astronomy

Jan. 13, 2013 Rise Set
Actual Time 7:45 AM CST 5:19 PM CST
Civil Twilight 7:15 AM CST 5:49 PM CST
Nautical Twilight 6:41 AM CST 6:23 PM CST
Astronomical Twilight 6:08 AM CST 6:55 PM CST
Moon 8:44 AM CST (1/13) 7:59 PM CST (1/13)
Length of Visible Light 10h 33m
Length of Day
9h 33m
Waxing Crescent, 5% of the Moon is Illuminated
Jan 13
Waxing Crescent
Jan 18
First Quarter
Jan 26
Full
Feb 3
Last Quarter
Feb 10
New

Hourly Weather History & Observations

Time (CST) Temp. Windchill Dew Point Humidity Pressure Visibility Wind Dir Wind Speed Gust Speed Precip Events Conditions
12:15 AM 14.4 °F -1.0 °F 6.1 °F 70% 30.11 in 10.0 mi NW 15.0 mph 19.6 mph N/A   Mostly Cloudy
12:35 AM 13.1 °F -1.4 °F 3.9 °F 67% 30.11 in 10.0 mi NNW 12.7 mph 20.7 mph N/A   Scattered Clouds
12:55 AM 12.2 °F -2.5 °F 4.1 °F 70% 30.13 in 10.0 mi NW 12.7 mph - N/A   Scattered Clouds
1:15 AM 11.8 °F -2.3 °F 3.7 °F 70% 30.13 in 10.0 mi NNW 11.5 mph - N/A   Clear
1:35 AM 11.3 °F -2.2 °F 3.9 °F 72% 30.11 in 10.0 mi NNW 10.4 mph - N/A   Clear
1:55 AM 11.1 °F -3.2 °F 3.7 °F 72% 30.12 in 10.0 mi NNW 11.5 mph 16.1 mph N/A   Clear
2:15 AM 10.9 °F -5.4 °F 3.4 °F 72% 30.13 in 10.0 mi NNW 15.0 mph 21.9 mph N/A   Clear
2:55 AM 10.4 °F -3.3 °F 3.6 °F 74% 30.13 in 10.0 mi NNW 10.4 mph 18.4 mph N/A   Clear
3:15 AM 10.4 °F -3.3 °F 3.9 °F 75% 30.14 in 10.0 mi NNW 10.4 mph - N/A   Clear
3:35 AM 10.0 °F - 4.1 °F 77% 30.14 in 10.0 mi Calm Calm - N/A   Scattered Clouds
3:55 AM 10.2 °F -0.6 °F 4.6 °F 78% 30.14 in 7.0 mi North 6.9 mph - N/A   Mostly Cloudy
4:15 AM 11.1 °F -3.2 °F 4.5 °F 75% 30.14 in 10.0 mi NNW 11.5 mph 17.3 mph N/A   Overcast
4:35 AM 11.5 °F -4.7 °F 3.9 °F 72% 30.15 in 10.0 mi NNW 15.0 mph 19.6 mph N/A   Overcast
4:55 AM 11.1 °F -3.9 °F 3.4 °F 71% 30.15 in 10.0 mi NNW 12.7 mph - N/A   Overcast
5:15 AM 10.2 °F -2.7 °F 3.7 °F 75% 30.15 in 7.0 mi NNW 9.2 mph - N/A   Mostly Cloudy
5:35 AM 10.0 °F - 4.1 °F 77% 30.16 in 7.0 mi Calm Calm - N/A   Mostly Cloudy
5:55 AM 10.0 °F -3.7 °F 4.1 °F 77% 30.16 in 10.0 mi NNW 10.4 mph - N/A   Mostly Cloudy
6:15 AM 9.5 °F - 3.7 °F 77% 30.17 in 10.0 mi Calm Calm - N/A   Scattered Clouds
6:35 AM 9.1 °F - 3.6 °F 78% 30.17 in 10.0 mi Calm Calm - N/A   Scattered Clouds
6:55 AM 9.0 °F - 4.1 °F 81% 30.18 in 7.0 mi Calm Calm - N/A   Scattered Clouds
7:15 AM 8.6 °F - 3.9 °F 81% 30.19 in 7.0 mi Calm Calm - N/A Snow Light Snow
7:35 AM 8.6 °F -3.7 °F 3.0 °F 78% 30.19 in 10.0 mi NNW 8.1 mph - N/A   Clear
7:55 AM 8.6 °F -2.6 °F 2.7 °F 77% 30.21 in 10.0 mi NW 6.9 mph - N/A   Clear
8:15 AM 8.6 °F - 2.8 °F 77% 30.21 in 10.0 mi Calm Calm - N/A   Clear
8:35 AM 9.7 °F -0.1 °F 3.4 °F 76% 30.23 in 10.0 mi NW 5.8 mph - N/A   Clear
8:55 AM 10.8 °F 0.0 °F 4.3 °F 75% 30.23 in 10.0 mi NW 6.9 mph - N/A   Clear
9:15 AM 11.5 °F -3.4 °F 3.9 °F 72% 30.23 in 10.0 mi NW 12.7 mph 18.4 mph N/A   Clear
9:35 AM 12.2 °F -2.5 °F 4.1 °F 70% 30.23 in 10.0 mi NNW 12.7 mph - N/A   Clear
9:55 AM 13.1 °F -0.7 °F 4.1 °F 67% 30.23 in 10.0 mi NW 11.5 mph 20.7 mph N/A   Clear
10:15 AM 14.0 °F 1.2 °F 3.9 °F 64% 30.24 in 10.0 mi NW 10.4 mph - N/A   Clear
10:35 AM 15.3 °F 2.0 °F 4.5 °F 62% 30.24 in 10.0 mi NW 11.5 mph - N/A   Clear
10:55 AM 16.0 °F 2.3 °F 4.6 °F 61% 30.23 in 10.0 mi NW 12.7 mph 17.3 mph N/A   Clear
11:15 AM 16.7 °F 3.8 °F 4.6 °F 59% 30.23 in 10.0 mi NNW 11.5 mph - N/A   Clear
11:35 AM 18.0 °F 6.1 °F 4.8 °F 57% 30.23 in 10.0 mi NW 10.4 mph - N/A   Clear
11:55 AM 19.0 °F 7.5 °F 3.9 °F 52% 30.22 in 10.0 mi WNW 10.4 mph 17.3 mph N/A   Clear
12:15 PM 19.6 °F 6.8 °F 3.2 °F 49% 30.22 in 10.0 mi WNW 12.7 mph - N/A   Clear
12:35 PM 20.5 °F 8.0 °F 2.3 °F 45% 30.21 in 10.0 mi WNW 12.7 mph 16.1 mph N/A   Clear
12:55 PM 21.4 °F 9.1 °F 2.1 °F 43% 30.21 in 10.0 mi NW 12.7 mph 17.3 mph N/A   Clear
1:15 PM 21.6 °F 8.8 °F 1.0 °F 41% 30.20 in 10.0 mi WNW 13.8 mph 19.6 mph N/A   Clear
1:35 PM 22.3 °F 10.8 °F 1.4 °F 40% 30.19 in 10.0 mi NW 11.5 mph - N/A   Clear
1:55 PM 22.6 °F 11.9 °F 1.2 °F 40% 30.20 in 10.0 mi NW 10.4 mph 18.4 mph N/A   Clear
2:15 PM 23.0 °F 14.7 °F 1.0 °F 39% 30.20 in 10.0 mi WNW 6.9 mph 18.4 mph N/A   Clear
2:35 PM 23.5 °F 11.8 °F 1.4 °F 38% 30.21 in 10.0 mi WNW 12.7 mph 17.3 mph N/A   Clear
2:55 PM 23.7 °F 15.6 °F 1.0 °F 38% 30.21 in 10.0 mi WNW 6.9 mph - N/A   Clear
3:15 PM 23.7 °F 11.5 °F 1.9 °F 39% 30.22 in 10.0 mi WNW 13.8 mph - N/A   Clear
3:35 PM 23.2 °F 10.8 °F 2.1 °F 40% 30.21 in 10.0 mi WNW 13.8 mph 19.6 mph N/A   Clear
3:55 PM 23.0 °F 11.1 °F 3.4 °F 43% 30.23 in 10.0 mi WNW 12.7 mph 17.3 mph N/A   Clear
4:15 PM 22.8 °F 10.9 °F 3.9 °F 44% 30.24 in 10.0 mi NW 12.7 mph 16.1 mph N/A   Clear
4:35 PM 22.1 °F 13.7 °F 4.8 °F 48% 30.25 in 10.0 mi WNW 6.9 mph - N/A   Clear
4:55 PM 21.2 °F 10.9 °F 4.8 °F 49% 30.26 in 10.0 mi NW 9.2 mph - N/A   Clear
5:15 PM 19.9 °F 13.4 °F 5.5 °F 54% 30.26 in 10.0 mi WNW 4.6 mph - N/A   Clear
5:35 PM 18.5 °F - 5.9 °F 58% 30.27 in 10.0 mi Calm Calm - N/A   Clear
5:55 PM 17.4 °F - 6.4 °F 62% 30.26 in 10.0 mi Calm Calm - N/A   Clear
6:15 PM 16.5 °F - 6.3 °F 64% 30.27 in 10.0 mi Calm Calm - N/A   Clear
6:35 PM 16.0 °F - 5.9 °F 65% 30.28 in 10.0 mi Calm Calm - N/A   Clear
6:55 PM 15.1 °F - 5.9 °F 67% 30.28 in 10.0 mi Calm Calm - N/A   Clear
7:15 PM 14.5 °F - 5.7 °F 68% 30.28 in 10.0 mi Calm Calm - N/A   Clear
7:35 PM 14.9 °F - 5.4 °F 66% 30.28 in 10.0 mi Calm Calm - N/A   Clear
7:55 PM 14.2 °F - 5.0 °F 67% 30.28 in 10.0 mi Calm Calm - N/A   Clear
8:15 PM 13.6 °F - 5.2 °F 69% 30.29 in 10.0 mi Calm Calm - N/A   Clear
8:35 PM 13.8 °F - 5.0 °F 68% 30.28 in 10.0 mi Calm Calm - N/A   Clear
8:55 PM 13.1 °F - 5.0 °F 70% 30.28 in 10.0 mi Calm Calm - N/A   Clear
9:15 PM 13.1 °F - 5.2 °F 71% 30.29 in 10.0 mi Calm Calm - N/A   Clear
9:35 PM 12.9 °F - 4.8 °F 70% 30.30 in 10.0 mi Calm Calm - N/A   Clear
9:55 PM 13.1 °F - 5.0 °F 70% 30.30 in 10.0 mi Calm Calm - N/A   Clear
10:15 PM 13.1 °F - 4.8 °F 70% 30.31 in 10.0 mi Calm Calm - N/A   Clear
10:35 PM 12.6 °F - 4.6 °F 71% 30.32 in 10.0 mi Calm Calm - N/A   Clear
10:55 PM 12.0 °F - 4.1 °F 71% 30.33 in 10.0 mi Calm Calm - N/A   Clear
11:35 PM 11.3 °F - 4.1 °F 73% 30.33 in 10.0 mi Calm Calm - N/A   Clear
11:55 PM 11.8 °F - 4.1 °F 71% 30.33 in 10.0 mi Calm Calm - N/A   Clear